Weather History for Provincetown, MA

Change the Weather History Date:

Monday, November 12, 2012

  Actual Average Record
Temperature  
Mean Temperature 56 °F -  
Max Temperature 62 °F 47 °F 62 °F (2012)
Min Temperature 51 °F 37 °F 28 °F (2007)
Degree Days  
Heating Degree Days 8    
Growing Degree Days 6 (Base 50)    
Moisture  
Dew Point 54 °F    
Average Humidity 87    
Maximum Humidity 100    
Minimum Humidity 72    
Precipitation  
Precipitation 0.00 in - - ()
Sea Level Pressure  
Sea Level Pressure 30.43 in    
Wind  
Wind Speed 11 mph (South)    
Max Wind Speed 15 mph    
Max Gust Speed 21 mph    
Visibility 10 miles    
Events      
Averages and records for this station are not official NWS values.
T = Trace of Precipitation, MM = Missing Value Source: NWS Daily Summary

Daily Weather History Graph

Daily Weather History Graph

Search for Another Location

Airport:

Trip Planner

Search our weather history database for the weather conditions in past years. The results will help you decide how hot, cold, wet, or windy it might be!

Date:

Astronomy

Nov. 12, 2012 Rise Set
Actual Time 6:27 AM EST 4:21 PM EST
Civil Twilight 5:57 AM EST 4:51 PM EST
Nautical Twilight 5:24 AM EST 5:25 PM EST
Astronomical Twilight 4:51 AM EST 5:58 PM EST
Moon 4:48 AM EST (11/12) 3:25 PM EST (11/12)
Length of Visible Light 10h 53m
Length of Day
9h 54m
Waning Crescent, 2% of the Moon is Illuminated
Nov 12
Waning Crescent
Nov 13
New
Nov 20
First Quarter
Nov 28
Full
Dec 6
Last Quarter

Hourly Weather History & Observations

Time (EST) Temp. Dew Point Humidity Pressure Visibility Wind Dir Wind Speed Gust Speed Precip Events Conditions
12:15 AM 51.8 °F 51.8 °F 100% 30.50 in 10.0 mi SSW 11.5 mph - N/A   Clear
12:35 AM 53.6 °F 51.8 °F 94% 30.50 in 10.0 mi SSW 11.5 mph - N/A   Clear
1:15 AM 53.6 °F 51.8 °F 94% 30.50 in 10.0 mi SSW 10.4 mph - N/A   Clear
1:55 AM 51.8 °F 51.8 °F 100% 30.50 in 10.0 mi South 10.4 mph - N/A   Clear
2:35 AM 53.6 °F 51.8 °F 94% 30.50 in 10.0 mi South 10.4 mph - N/A   Clear
2:55 AM 51.8 °F 51.8 °F 100% 30.49 in 10.0 mi South 10.4 mph - N/A   Clear
3:15 AM 53.6 °F 51.8 °F 94% 30.49 in 10.0 mi South 9.2 mph - N/A   Clear
3:35 AM 53.6 °F 51.8 °F 94% 30.49 in 10.0 mi SSW 9.2 mph - N/A   Clear
3:56 AM 51.8 °F 51.8 °F 100% 30.50 in 10.0 mi South 8.1 mph - N/A   Clear
4:15 AM 51.8 °F 50.0 °F 94% 30.50 in 10.0 mi South 8.1 mph - N/A   Clear
4:35 AM 53.6 °F 51.8 °F 94% 30.50 in 10.0 mi South 8.1 mph - N/A   Clear
4:55 AM 53.6 °F 51.8 °F 94% 30.49 in 10.0 mi South 8.1 mph - N/A   Clear
5:55 AM 53.6 °F 51.8 °F 94% 30.50 in 10.0 mi South 11.5 mph - N/A   Clear
6:15 AM 53.6 °F 51.8 °F 94% 30.50 in 10.0 mi South 9.2 mph - N/A   Clear
6:35 AM 53.6 °F 51.8 °F 94% 30.51 in 10.0 mi South 6.9 mph - N/A   Clear
6:55 AM 53.6 °F 51.8 °F 94% 30.51 in 10.0 mi South 8.1 mph - N/A   Clear
7:15 AM 53.6 °F 51.8 °F 94% 30.51 in 9.0 mi South 9.2 mph - N/A   Clear
7:55 AM 55.4 °F 53.6 °F 94% 30.51 in 10.0 mi South 9.2 mph - N/A   Clear
8:15 AM 57.2 °F 53.6 °F 88% 30.51 in 10.0 mi South 10.4 mph 16.1 mph N/A   Clear
8:35 AM 57.2 °F 53.6 °F 88% 30.50 in 10.0 mi South 11.5 mph 18.4 mph N/A   Clear
9:15 AM 59.0 °F 55.4 °F 88% 30.50 in 10.0 mi South 12.7 mph 16.1 mph N/A   Clear
9:35 AM 60.8 °F 55.4 °F 82% 30.49 in 10.0 mi South 11.5 mph 17.3 mph N/A   Clear
9:55 AM 60.8 °F 55.4 °F 82% 30.49 in 10.0 mi SSW 10.4 mph - N/A   Clear
10:15 AM 60.8 °F 55.4 °F 82% 30.48 in 10.0 mi South 10.4 mph - N/A   Clear
10:35 AM 62.6 °F 55.4 °F 77% 30.48 in 10.0 mi SSW 11.5 mph - N/A   Clear
10:55 AM 62.6 °F 55.4 °F 77% 30.47 in 10.0 mi SSW 10.4 mph 17.3 mph N/A   Clear
11:15 AM 62.6 °F 55.4 °F 77% 30.47 in 10.0 mi SSW 12.7 mph - N/A   Clear
11:35 AM 62.6 °F 55.4 °F 77% 30.46 in 10.0 mi SSW 12.7 mph - N/A   Scattered Clouds
12:15 PM 62.6 °F 53.6 °F 72% 30.45 in 10.0 mi SSW 12.7 mph 17.3 mph N/A   Partly Cloudy
12:35 PM 60.8 °F 53.6 °F 77% 30.45 in 10.0 mi SSW 10.4 mph - N/A   Mostly Cloudy
12:55 PM 60.8 °F 53.6 °F 77% 30.44 in 10.0 mi SW 10.4 mph - N/A   Overcast
1:15 PM 62.6 °F 53.6 °F 72% 30.43 in 10.0 mi SW 10.4 mph 16.1 mph N/A   Mostly Cloudy
1:36 PM 60.8 °F 53.6 °F 77% 30.42 in 10.0 mi SSW 11.5 mph 18.4 mph N/A   Mostly Cloudy
1:55 PM 62.6 °F 53.6 °F 72% 30.42 in 10.0 mi SSW 12.7 mph 19.6 mph N/A   Partly Cloudy
2:15 PM 62.6 °F 53.6 °F 72% 30.41 in 10.0 mi SSW 12.7 mph - N/A   Clear
2:35 PM 62.6 °F 53.6 °F 72% 30.41 in 10.0 mi SSW 15.0 mph 18.4 mph N/A   Clear
2:55 PM 59.0 °F 53.6 °F 82% 30.41 in 10.0 mi SSW 10.4 mph - N/A   Mostly Cloudy
3:15 PM 59.0 °F 53.6 °F 82% 30.40 in 10.0 mi SSW 10.4 mph - N/A   Scattered Clouds
3:55 PM 60.8 °F 53.6 °F 77% 30.40 in 10.0 mi South 12.7 mph - N/A   Clear
4:15 PM 60.8 °F 53.6 °F 77% 30.40 in 10.0 mi South 12.7 mph 19.6 mph N/A   Clear
4:35 PM 59.0 °F 53.6 °F 82% 30.40 in 10.0 mi South 11.5 mph 16.1 mph N/A   Partly Cloudy
5:55 PM 57.2 °F 55.4 °F 94% 30.40 in 10.0 mi South 10.4 mph 16.1 mph N/A   Scattered Clouds
6:15 PM 57.2 °F 55.4 °F 94% 30.39 in 10.0 mi South 9.2 mph - N/A   Partly Cloudy
6:55 PM 57.2 °F 55.4 °F 94% 30.38 in 10.0 mi South 10.4 mph - N/A   Clear
7:15 PM 57.2 °F 55.4 °F 94% 30.37 in 10.0 mi South 8.1 mph - N/A   Clear
7:35 PM 57.2 °F 55.4 °F 94% 30.36 in 10.0 mi South 10.4 mph - N/A   Clear
7:55 PM 57.2 °F 55.4 °F 94% 30.36 in 10.0 mi South 11.5 mph 17.3 mph N/A   Clear
8:55 PM 57.2 °F 55.4 °F 94% 30.34 in 10.0 mi South 11.5 mph - N/A   Overcast
9:36 PM - - N/A% 30.33 in 10.0 mi South 11.5 mph - N/A   Mostly Cloudy
9:55 PM 59.0 °F 55.4 °F 88% 30.33 in 10.0 mi South 11.5 mph 16.1 mph N/A   Overcast
10:15 PM 59.0 °F 55.4 °F 88% 30.32 in 10.0 mi South 11.5 mph - N/A   Overcast
10:35 PM 59.0 °F 55.4 °F 88% 30.31 in 10.0 mi South 10.4 mph 17.3 mph N/A   Overcast
10:55 PM 59.0 °F 57.2 °F 94% 30.30 in 10.0 mi South 12.7 mph 18.4 mph N/A   Overcast
11:15 PM 60.8 °F 57.2 °F 88% 30.30 in 10.0 mi South 11.5 mph 20.7 mph N/A   Overcast
11:35 PM 60.8 °F 57.2 °F 88% 30.29 in 10.0 mi South 12.7 mph 18.4 mph N/A   Overcast
11:55 PM 60.8 °F 57.2 °F 88% 30.28 in 10.0 mi South 13.8 mph - N/A   Mostly Cloudy